Regional Weather Roundup
Issued by NWS

Home | Current Version | Previous Version | Graphics & Text | Print | Product List | Glossary On
Versions: 1 2 3 4 5 6 7 8 9 10 11 12 13 14 15 16 17 18 19 20 21 22 23 24 25 26 27 28 29 30 31 32 33 34 35 36 37 38 39 40 41 42 43 44 45 46 47 48 49 50
000
ASUS45 KTFX 240010
RWRMT
MONTANA REGIONAL WEATHER ROUNDUP
NATIONAL WEATHER SERVICE GREAT FALLS MT
600 PM MDT SAT MAY 23 2015

NOTE: "FAIR" INDICATES FEW OR NO CLOUDS BELOW 12000 FEET WITH NO
SIGNIFICANT WEATHER AND/OR OBSTRUCTIONS TO VISIBILITY.

MTZ001>007-043-240100-
WEST OF THE DIVIDE

CITY           SKY/WX    TMP DP  RH WIND       PRES   REMARKS
KALISPELL      PTCLDY    75  37  25 E23G30    30.02S
MISSOULA       LGT RAIN  64  43  46 NW8       30.01F
BUTTE          CLOUDY    54  39  57 N17       30.07R
MULLAN PASS    SUNNY     62  33  33 VRB5      30.09F
DEER LODGE       N/A     54  45  71 NE17G24   30.13R
EUREKA           N/A     79  27  14 E7        30.01S
HAMILTON         N/A     64  41  42 N15       30.00R
LIBBY            N/A     79  25  13 E8G16     29.97S
RONAN            N/A     68  44  41 NE16      30.06R
THOMPSON FALLS   N/A     79  38  22 NE9       29.99F
$$

MTZ008-052>055-240100-
SOUTHWEST MONTANA

CITY           SKY/WX    TMP DP  RH WIND       PRES   REMARKS
BOZEMAN        LGT RAIN  54  48  80 CALM      30.05R
DILLON         MOSUNNY   60  42  51 N23G31    30.01R
W YELLOWSTONE  LGT RAIN  46  41  81 NE8       30.04R
THREE FORKS      N/A     58  58 100 N5        30.04S
TWIN BRIDGES     N/A     59  40  49 N23       29.99S
$$

MTZ009-010-012-014-046-048-049-054-240100-
EAST SLOPES AND CENTRAL MONTANA

CITY           SKY/WX    TMP DP  RH WIND       PRES   REMARKS
CUT BANK       CLOUDY    64  43  46 S3        30.10F
GREAT FALLS    CLOUDY    54  48  80 SW7       30.10R
MALMSTROM AFB  CLOUDY    56  49  77 SW8       30.10R
HELENA         LGT RAIN  55  49  80 NW13      30.08R
CONRAD           N/A     58  52  80 CALM      30.11F
$$

MTZ011-013-016-021-045-047-050-051-240100-
NORTH CENTRAL MONTANA

CITY           SKY/WX    TMP DP  RH WIND       PRES   REMARKS
HAVRE          MOSUNNY   70  40  33 E14G26    30.07S
LEWISTOWN      PTSUNNY   60  45  57 NW5       30.08S
N BAR RANCH    CLOUDY    57  43  58 NE7       30.10S
CHINOOK          N/A     72  39  30 E10G16    30.07S
FORT BENTON      N/A     70  46  43 S7        30.07S
$$

MTZ017>020-022>027-061-062-240100-
NORTHEAST MONTANA

CITY           SKY/WX    TMP DP  RH WIND       PRES   REMARKS
GLASGOW        MOSUNNY   71  37  28 E20       30.06S
JORDAN           N/A     65  42  43 SE15      30.06S
SIDNEY         CLOUDY    68  41  37 E10       30.08S
WOLF POINT     PTSUNNY   73  39  29 E10G17    30.06F
MALTA            N/A     71  40  32 E14       30.03R
PLENTYWOOD       N/A     72  36  26 E9        30.09S
POPLAR           N/A     72  37  28 SE15G21   30.07S
SCOBEY           N/A     71  35  26 E10       30.08S
$$

MTZ028>42-056>058-240100-
SOUTHCENTRAL AND SOUTHEAST MONTANA

CITY           SKY/WX    TMP DP  RH WIND       PRES   REMARKS
BAKER          CLOUDY    53  51  93 NE10      30.09F
BILLINGS       CLOUDY    58  46  64 E12       30.02R
LIVINGSTON     LGT RAIN  52  49  89 E9        30.05S
MILES CITY     LGT RAIN  54  50  87 E9        30.07S
BIG TIMBER       N/A     54  48  82 N5        30.07R
EKALAKA          N/A     52  47  83 E6        30.04S
FORSYTH          N/A     54  52  94 E10       30.06S
LAUREL           N/A     60  44  55 NE9       30.01R
ROUNDUP          N/A     64  40  41 NE10      29.95R
$$

REGIONAL REPORTS...DAKOTAS

CITY           SKY/WX    TMP DP  RH WIND       PRES   REMARKS
WILLISTON      CLOUDY    71  38  29 SE10      30.08S
MINOT          MOSUNNY   73  38  27 S7        30.07S
DICKINSON      LGT RAIN  58  46  64 SE12      30.08S
BEACH          LGT RAIN  54  54 100 SE6       30.11F
CROSBY         FAIR      73  32  21 E13       30.08F
WATFORD CITY   FAIR      68  41  37 SE15      30.07S
BISMARCK       CLOUDY    63  49  60 SE3       30.10F
GRAND FORKS    PTSUNNY   74  44  34 S15       30.08S
FARGO          MOSUNNY   70  45  40 S14       30.11F
BUFFALO SD       N/A     58  47  66 E13       29.98F
RAPID CITY     CLOUDY    58  50  75 E10       30.01F
$$

REGIONAL REPORTS...WYOMING/IDAHO/WASHINGTON

CITY           SKY/WX    TMP DP  RH WIND       PRES   REMARKS
GILLETTE       MOSUNNY   57  47  69 NE16      29.97F
SHERIDAN       CLOUDY    52  47  83 NE10      30.02S
BUFFALO WY     CLOUDY    51  48  89 N12       30.03R
CODY           CLOUDY    48  45  87 W6        30.02R
YELLOWSTONE LA   N/A     46  37  71 CALM      30.07S
IDAHO FALLS    CLOUDY    51  49  92 SW6       29.97S
SALMON         PTSUNNY   64  39  39 E13G20    29.93R
BOISE          PTSUNNY   68  54  60 SE13      29.83F THUNDER
SPOKANE        MOSUNNY   82  30  15 NE5       29.94F
$$

REGIONAL REPORTS...ALBERTA

CITY           SKY/WX    TMP DP  RH WIND       PRES   REMARKS
EDMONTON       SUNNY     79  30  17 SE3       30.06F
CALGARY        MOSUNNY   73  28  19 E9        30.12F
LETHBRIDGE     MOSUNNY   75  30  19 NE15      30.08S
MEDICINE HAT   MOSUNNY   75  30  19 E9G17     30.06S
$$

REGIONAL REPORTS...SASKATCHEWAN

CITY           SKY/WX    TMP DP  RH WIND       PRES   REMARKS
SWIFT CURRENT  MOSUNNY   73  30  20 E7        30.10S
REGINA         PTSUNNY   75  39  27 SE6       30.08S
$$


USA.gov is the U.S. government's official web portal to all federal, state and local government web resources and services.